Uncategorized

2022 Ratings: September 14th

A lighter load makes it easier through this hellish week.

MeetCourseBoys Adj.Girls Adj.Average
SEC 1Ella Sharp Park7-23
SAC 1Lake Township Park534

GradeNameTimeTeamRatingMeet
11Connell Alford15:31.8Chelsea207.1SEC 1
11Braylon Petty15:57.1Adrian198.6SEC 1
12Nicolas Fry15:57.6Ann Arbor Skyline198.5SEC 1
11Evan Loughridge15:59.0Pinckney198.0SEC 1
12Samuel Jackson15:59.5Saline197.8SEC 1
11Brandon Anderson16:02.2Dexter196.9SEC 1
11Truman Johnson16:09.2Saline194.6SEC 1
11Ethan Sandula16:10.0Pinckney194.3SEC 1
12Zach Debeauclair16:17.9Pinckney191.7SEC 1
12Aiden Smith16:20.9Adrian190.7SEC 1
12Zebedee Swager16:29.7Chelsea187.8SEC 1
12Bram Hartsuff16:30.8Chelsea187.4SEC 1
11Vincent Peterson Sand16:38.0Ann Arbor Pioneer185.0SEC 1
9Moises Salazar16:39.1Adrian184.6SEC 1
12Luke Butler16:41.4Monroe183.9SEC 1
12Owen Ackerman16:51.3Dexter180.6SEC 1
12Kyle Hoffner16:52.3Monroe180.2SEC 1
12Christopher Van Lent16:55.0Ann Arbor Skyline179.3SEC 1
12William Winter16:59.5Parchment178.5SAC 1
12Jason Whitton16:59.2Saline177.9SEC 1
11Aaron Sterken17:00.9Ann Arbor Pioneer177.4SEC 1
11Paul Moore17:01.5Pinckney177.2SEC 1
10Leo Swager17:05.4Chelsea175.9SEC 1
12Ben Schefka17:07.8Adrian175.1SEC 1
12Elijah Routson17:08.3Saline174.9SEC 1
12Roman Cortina17:10.7Ann Arbor Pioneer174.1SEC 1
12Andrew McNally17:16.1Saline172.3SEC 1
12Andrew Grier17:18.9Ann Arbor Pioneer171.4SEC 1
11Jackson Dell17:19.2Chelsea171.3SEC 1
12Thomas Kerber17:19.7Ann Arbor Pioneer171.1SEC 1
11Boden Genovese17:21.8Coloma171.1SAC 1
12Adam Bigelow17:22.0Ann Arbor Huron170.3SEC 1
12Nick Spruce17:22.8Chelsea170.1SEC 1
12Shane Pitcher17:24.6Saline169.5SEC 1
12Jake Eagling17:25.2Adrian169.3SEC 1
11Grant Fahle17:28.0Tecumseh168.3SEC 1
11Lucas Weintraub17:28.8Ann Arbor Huron168.1SEC 1
11Sam Gibson17:31.4Dexter167.2SEC 1
9Beckett Boos17:32.7Chelsea166.8SEC 1
11Eric Overdier17:38.0Ann Arbor Pioneer165.0SEC 1
12John Sanderson17:41.4Bridgman164.5SAC 1
12Nathan Milliman17:40.1Ann Arbor Pioneer164.3SEC 1
12Ethan Glick17:48.1Constantine162.3SAC 1
11Paul Minock17:49.5Ann Arbor Skyline161.2SEC 1
9Marek Butkiewicz17:51.9Kalamazoo Hackett161.0SAC 1
12Chase Klapthor17:50.0Ann Arbor Pioneer161.0SEC 1
10Isaac Edgington17:53.1Holland Black River160.6SAC 1
12Matt Dombrowski17:51.1Ann Arbor Pioneer160.6SEC 1
12Andrew Strong17:54.3Saline159.6SEC 1
12Landon Wissink17:54.8Saline159.4SEC 1
10Aidan Ortiz17:55.0Temperance Bedford159.3SEC 1
12Charlie Stormer17:58.2Saugatuck158.9SAC 1
10Nicholas Balla17:56.3Temperance Bedford158.9SEC 1
9Brennan Larusso17:59.2Saline157.9SEC 1
11Andrew Foshag17:59.8Monroe157.7SEC 1
10Andrew Mabry18:02.6Bridgman157.5SAC 1
11Liam Bredeweg18:00.7Ann Arbor Pioneer157.4SEC 1
10Walker Brose18:02.1Ann Arbor Huron157.0SEC 1
12Isaac Bogard18:04.7Kalamazoo Christian156.8SAC 1
10Riley Smith18:02.9Adrian156.7SEC 1
10Caleb Snyder18:03.1Dexter156.6SEC 1
10Chris Anderson18:03.6Ann Arbor Pioneer156.5SEC 1
12Thomas Lepper18:04.1Pinckney156.3SEC 1
9Beckett Crooks18:05.7Ann Arbor Pioneer155.8SEC 1
12Rylan Teddy18:05.8Dexter155.7SEC 1
11Matthew Canales18:06.0Adrian155.7SEC 1
9Luke Dudash18:10.5Dexter154.2SEC 1
11Gabe Sanborn18:12.0Ann Arbor Pioneer153.7SEC 1
9Thomas DeJesus18:12.1Ann Arbor Pioneer153.6SEC 1
10Landyn Soule18:12.8Adrian153.4SEC 1
11Henry Beard18:13.7Ann Arbor Huron153.1SEC 1
12Dominik White18:14.8Saline152.7SEC 1
10Scott Smith18:15.6Dexter152.5SEC 1
11Gavin Sehy18:23.3Kalamazoo Hackett150.6SAC 1
10William Rosales18:24.0Saline149.7SEC 1
12Ethan Kapolka18:24.3Chelsea149.6SEC 1
11Gabe Bock18:25.5Temperance Bedford149.2SEC 1
12Gavin Burt18:26.8Saline148.7SEC 1
12Alex Hoffman18:27.3Dexter148.6SEC 1
10Palmer Ziemer18:27.7Tecumseh148.4SEC 1
11Liam Ridenour18:29.0Ann Arbor Huron148.0SEC 1
9Linus Helzerman18:29.4Chelsea147.9SEC 1
12Micah Martin18:32.5Delton-Kellogg147.5SAC 1
9Jamal (Max) Samaha18:31.0Ann Arbor Huron147.3SEC 1
12Charlie Doan18:31.3Adrian147.2SEC 1
9Sean Siems18:33.7Kalamazoo Hackett147.1SAC 1
10Jordan Bunce18:31.7Temperance Bedford147.1SEC 1
9Dane Hieronimus18:32.5Temperance Bedford146.8SEC 1
12Roger Hernandez18:37.0Holland Black River146.0SAC 1
10Myles Bray18:35.3Monroe145.9SEC 1
11Mason Jett18:35.7Ann Arbor Skyline145.8SEC 1
11Ethan Umberger18:36.0Saline145.7SEC 1
12Andrew England18:37.7Jackson145.1SEC 1
11Maxx Adams18:37.9Monroe145.0SEC 1
12Kam Rinker18:41.3Kalamazoo Christian144.6SAC 1
10Eddy Granados18:41.6Coloma144.5SAC 1
12Devin Saxon18:40.1Ann Arbor Huron144.3SEC 1
10Max Marten18:40.1Tecumseh144.3SEC 1
10Gabe Maciag18:41.7Pinckney143.8SEC 1
10Kyle Osborne18:42.6Pinckney143.5SEC 1
12Soren Nielsen18:43.1Ann Arbor Skyline143.3SEC 1
12Owen Liepman18:43.8Saline143.1SEC 1
9Wyatt Larson18:44.9Pinckney142.7SEC 1
9Karl Swager18:46.6Chelsea142.1SEC 1
12Kaden Jensen18:48.2Dexter141.6SEC 1
12Nick Mitchell18:51.2Kalamazoo Christian141.3SAC 1
9Bruno Cifaldi18:51.1Ann Arbor Skyline140.6SEC 1
9Spencer Wetherbee18:51.1Saline140.6SEC 1
12Ben Meyer18:54.6South Haven140.1SAC 1
10Owen Strieter-Byron18:53.5Tecumseh139.8SEC 1
9Theo Sacks-Thomas18:54.3Ann Arbor Pioneer139.6SEC 1
12Ismael SanAntonio18:54.9Ann Arbor Pioneer139.4SEC 1
10Jacob Yeager18:55.1Temperance Bedford139.3SEC 1
11Yuma Tsubouchi18:56.9Dexter138.7SEC 1
12Gavin Hancox19:00.2Gobles138.3SAC 1
11Aldus Yun18:58.2Ann Arbor Pioneer138.3SEC 1
12Aidan Behmer18:59.3Ann Arbor Huron137.9SEC 1
12Colten Lumadue19:00.1Pinckney137.6SEC 1
12Luke Gorgas19:03.0Saugatuck137.3SAC 1
12Stewart Berryhill19:03.5Saline136.5SEC 1
9Cole Doty19:04.1Dexter136.3SEC 1
9AJ Smith19:04.9Chelsea136.0SEC 1
10Zack Lummis19:05.8Pinckney135.7SEC 1
12Isaac Shepard19:09.3Delton-Kellogg135.2SAC 1
9Thomas (TJ) Conley19:09.0Ann Arbor Huron134.7SEC 1
9Isaac Johnson19:12.7Holland Black River134.1SAC 1
10Daniel Mandujano19:13.3Watervliet133.9SAC 1
12Ethan Yesko19:11.3Saline133.9SEC 1
10Carter Stevens19:14.4Galesburg-Augusta133.5SAC 1
11Koen Lanker19:14.1Saline133.0SEC 1
11Loch Rigozzi19:16.8Saugatuck132.7SAC 1
11Charlie Munson19:15.3Dexter132.6SEC 1
10Elliot Cole19:17.4Parchment132.5SAC 1
11Liam Newton19:17.1Saline132.0SEC 1
10Zach Newman19:18.8Pinckney131.4SEC 1
12Corban Morrison19:21.5South Haven131.2SAC 1
12Nicolas Jiang19:21.9Ann Arbor Huron130.4SEC 1
10Kaleb Dekoeyer19:22.1Temperance Bedford130.3SEC 1
9Sebastian Bagley19:22.4Ann Arbor Pioneer130.2SEC 1
11Joey Stevenson19:23.2Ann Arbor Pioneer129.9SEC 1
9Sammy Gamboa19:26.0Saugatuck129.7SAC 1
12Gregor Morton19:26.3Saline128.9SEC 1
10Finn Wilson19:27.4Ann Arbor Pioneer128.5SEC 1
10Amon Nagase19:27.7Ann Arbor Pioneer128.4SEC 1
10Robbie King19:29.8Constantine128.4SAC 1
10Saman Meshinchi19:28.2Saline128.3SEC 1
11Joaquin Moore19:29.6Ann Arbor Huron127.8SEC 1
9Alex Martin19:31.4Chelsea127.2SEC 1
10Jonah Kraft19:31.8Ann Arbor Huron127.1SEC 1
9Miles Dell19:32.1Chelsea127.0SEC 1
9Mason Liepman19:34.1Saline126.3SEC 1
10Collin Eckermann19:34.6Saline126.1SEC 1
11Mason Gardea19:37.3Fennville125.9SAC 1
9Gage Bihn19:35.6Temperance Bedford125.8SEC 1
11Chase Nyack19:36.2Adrian125.6SEC 1
12Gage Vincent19:38.2Delton-Kellogg125.6SAC 1
10Jordan Marsh19:36.3Saline125.6SEC 1
12Daniel Rhoades19:36.8Monroe125.4SEC 1
12Joshua Gagne19:38.3Temperance Bedford124.9SEC 1
10Ethan Rimmer19:40.9Delton-Kellogg124.7SAC 1
11Carter Hill19:39.8Dexter124.4SEC 1
11Chris Stein19:42.0Monroe123.7SEC 1
10James VanderDussen19:44.2Kalamazoo Christian123.6SAC 1
9Ryan Boenke19:43.1Ann Arbor Pioneer123.3SEC 1
10Zack Mitchell19:45.3Kalamazoo Christian123.2SAC 1
9Brennan Nor19:46.6Saugatuck122.8SAC 1
10Maceo Colon19:45.3Temperance Bedford122.6SEC 1
10Owen Stimer19:49.2Holland Black River121.9SAC 1
11Wyatt Hockley19:48.7Ann Arbor Pioneer121.4SEC 1
11Aiden Cripe19:51.8Coloma121.1SAC 1
9Jack Fahlgren19:50.0Ann Arbor Pioneer121.0SEC 1
11Evan Marsee19:50.4Ann Arbor Pioneer120.9SEC 1
11Brad Salmon19:54.0Bridgman120.3SAC 1
10Tyler Condon19:52.2Adrian120.3SEC 1
11Harold Crowner19:53.8Saline119.7SEC 1
11Elisha Correll19:53.9Jackson119.7SEC 1
11Nathan Leung19:54.3Ann Arbor Huron119.6SEC 1
9Sam Price19:54.3Ann Arbor Pioneer119.6SEC 1
11Sean Pierucci19:56.6Kalamazoo Hackett119.5SAC 1
11Carter Verkerk19:55.8Saline119.1SEC 1
9Nate Sandula19:56.8Pinckney118.7SEC 1
10Ben Nichols19:57.2Jackson118.6SEC 1
12Andrew Rowe19:57.3Tecumseh118.6SEC 1
12Colin Alexander19:58.1Saline118.3SEC 1
10Alexander Svintsitski19:58.7Ann Arbor Huron118.1SEC 1
11Ethan Thomas19:58.8Temperance Bedford118.1SEC 1
10Matthew McGill20:00.2Dexter117.6SEC 1
10Leland Weiser20:02.3Ann Arbor Skyline116.9SEC 1
11Jack Burin20:02.4Dexter116.9SEC 1
11Marshall Peacock20:02.4Tecumseh116.9SEC 1
9Matthew Lyon20:06.0Allegan116.3SAC 1
9Kasen Salazar20:04.2Dexter116.3SEC 1
11Jack Durivage20:04.4Temperance Bedford116.2SEC 1
12Zack Hildebrandt20:06.1Ann Arbor Huron115.6SEC 1
12Cole VanderDussen20:10.0Kalamazoo Christian115.0SAC 1
11Johnathan Ball20:09.6Temperance Bedford114.5SEC 1
12Sebastian Kirk20:11.8Bridgman114.4SAC 1
12Landon Wilson20:10.3Dexter114.2SEC 1
9Alessandro Avila20:13.1Constantine114.0SAC 1
10Eli Hinkleman20:11.4Temperance Bedford113.9SEC 1
10Logan Patmalnieks20:13.4Constantine113.9SAC 1
11Nicholas Bennett20:12.1Saline113.6SEC 1
11William Rodriquez20:15.7Bridgman113.1SAC 1
10Justin Oetman20:18.7Saugatuck112.1SAC 1
10Noah McKinley20:17.3Ypsilanti Community111.9SEC 1
9Joshua Riggs20:17.7Monroe111.8SEC 1
9Lucas Goodfellow20:17.7Pinckney111.8SEC 1
12Andy Granados20:19.8Coloma111.7SAC 1
12Anthony Kruszka20:19.7Temperance Bedford111.1SEC 1
10Julian Linebaugh20:21.6Dexter110.5SEC 1
11Nicholas Cabrera20:24.0Allegan110.3SAC 1
10Joe Dunlap20:22.5Pinckney110.2SEC 1
10Malaki Muhammud20:23.3Ypsilanti Community109.9SEC 1
10Thomas Endres20:25.7Saline109.1SEC 1
12Gabe Muckle20:27.2Chelsea108.6SEC 1
10Alexander Sexton20:31.1Watervliet108.0SAC 1
12Nathan Robertson20:31.7Lawton107.8SAC 1
9Lucas Rumsa20:32.9Bridgman107.4SAC 1
12Culver Neldon20:34.2Allegan106.9SAC 1
12Brett Harsevoort20:34.8Delton-Kellogg106.7SAC 1
12Sawyer Childs20:36.3Allegan106.2SAC 1
11Adrik Ruch20:34.6Temperance Bedford106.1SEC 1
11Varun Yalavarthi20:37.0Ann Arbor Huron105.3SEC 1
9Christopher DeLaney20:39.0Allegan105.3SAC 1
9Gustaf Finn20:38.7Ann Arbor Skyline104.8SEC 1
12Kyle Sutton20:38.8Dexter104.7SEC 1
10Blake Cabble20:40.4Dexter104.2SEC 1
9Jason Biggs20:40.8Dexter104.1SEC 1
10Soren Stone-Palmquist20:42.5Ann Arbor Huron103.5SEC 1
12Julian Hawthorne20:46.2Constantine102.9SAC 1
10Landon Whitehead20:44.6Dexter102.8SEC 1
10Luke Ankeney20:44.7Ann Arbor Pioneer102.8SEC 1
10Brant Maley20:45.5Chelsea102.5SEC 1
12Nathan Robke20:46.2Dexter102.3SEC 1
10Julian Barry20:49.2Kalamazoo Hackett101.9SAC 1
9Parker Bomia-Laberdee20:48.0Monroe101.7SEC 1
10Jack Robichaud20:50.0Ann Arbor Skyline101.0SEC 1
10Bryce Bales20:50.7Dexter100.8SEC 1
10Andrew Irgang20:52.4Saline100.2SEC 1
12Luke Prong20:55.7South Haven99.8SAC 1
11Roman Bonfiglio20:53.7Saline99.8SEC 1
9Beck Ytterberg20:56.4Bridgman99.5SAC 1
9Andrew Hagerty20:56.2Pinckney98.9SEC 1
9Nolan Brescol20:57.1Temperance Bedford98.6SEC 1
10Keagan Cole20:59.9Parchment98.4SAC 1
11Jacob Williams21:00.0Kalamazoo Christian98.4SAC 1
9Michael Talvitie21:02.2Saline96.9SEC 1
10Owen Pfeiffer21:04.7Galesburg-Augusta96.8SAC 1
12Aidyn Underwood21:06.0Allegan96.3SAC 1
10Dante Pillot21:08.5Schoolcraft95.5SAC 1
12Sean Kavanaugh21:06.8Saline95.4SEC 1
10Eric Cameron21:09.5Chelsea94.5SEC 1
11Victer Ruimveld21:12.3Lawton94.2SAC 1
9Hayden Mondeville21:11.8Pinckney93.7SEC 1
9Ace Drewyor21:15.9Schoolcraft93.0SAC 1
12Gabe Flores21:16.2Constantine92.9SAC 1
9Austin Walden21:16.3Constantine92.9SAC 1
10Reggie Geftos21:19.6Monroe91.1SEC 1
10Alex Morin21:23.0Martin90.7SAC 1
9Bryson White21:24.0Jackson89.7SEC 1
11Kameron Smith21:26.5Watervliet89.5SAC 1
9Clark Douglas21:26.6Bridgman89.5SAC 1
9Tate Woodman21:25.6Saline89.1SEC 1
10Grayson Richards21:30.3Watervliet88.2SAC 1
10Connor Candler21:31.0Schoolcraft88.0SAC 1
9Levi Brooks21:31.1Lawton88.0SAC 1
9D’Angelo Lucarelli21:31.0Temperance Bedford87.3SEC 1
10Ashe Baskey21:31.7Ann Arbor Huron87.1SEC 1
11Grayson Albers21:34.5Ypsilanti Lincoln86.2SEC 1
11Luke Lindsay21:39.2Monroe84.6SEC 1
11Rhys Bedford21:41.7Delton-Kellogg84.4SAC 1
9Dylan Mineweaser21:41.4Jackson83.9SEC 1
9Marlowe Hartnett21:41.6Ann Arbor Skyline83.8SEC 1
11Micah Norris21:45.6Kalamazoo Christian83.2SAC 1
9Damien Martinez21:46.6Kalamazoo Hackett82.8SAC 1
9Trent Yeager21:45.3Temperance Bedford82.6SEC 1
9Parker Carrell21:50.1Saline81.0SEC 1
11Matthew Roehm21:52.6Saline80.1SEC 1
9David Sager21:56.1Gobles79.6SAC 1
9Micah Shank21:57.3Parchment79.2SAC 1
11Mitchell Shippy-Thrash21:57.6Fennville79.1SAC 1
10Jay Hoskeri21:57.1Ann Arbor Huron78.6SEC 1
10Qian Li21:57.8Ann Arbor Huron78.4SEC 1
11Austin Zoch22:00.7Allegan78.1SAC 1
11Ethan Wait22:01.2Gobles77.9SAC 1
10Spencer Wood21:59.2Ann Arbor Huron77.9SEC 1
10Lucas Isbrecht22:02.7Watervliet77.4SAC 1
9London Rising22:04.3Adrian76.2SEC 1
9Kajus Kazlauskas22:06.2Saline75.6SEC 1
11Keegan Gallagher22:13.6Kalamazoo Hackett73.8SAC 1
10Rex Bajcz22:12.3Ann Arbor Pioneer73.6SEC 1
10James Minelli22:12.7Dexter73.4SEC 1
11Owen Nesbit22:14.2Ann Arbor Pioneer72.9SEC 1
10Micah Winchell22:14.2Ann Arbor Skyline72.9SEC 1
9Kyle Krasnan22:14.5Ann Arbor Skyline72.8SEC 1
9Hayden Helms22:15.4Ann Arbor Pioneer72.5SEC 1
12Mason Grann22:18.3Dexter71.6SEC 1
11Chris Coffer22:19.3Dexter71.2SEC 1
10Dylan Danner22:21.7Schoolcraft71.1SAC 1
11Campbell Brooks22:23.4Allegan70.5SAC 1
10Marty Watson22:24.3Dexter69.6SEC 1
9Mason Maley22:25.2Chelsea69.3SEC 1
12Atif Usmani22:30.5Holland Black River68.2SAC 1
10Zane Vorva22:30.6Parchment68.1SAC 1
12Brandon Persons22:31.0Lawton68.0SAC 1
9Andrew Nutt22:31.5Ann Arbor Pioneer67.2SEC 1
11Yeonho Choi22:38.0Ann Arbor Huron65.0SEC 1
9Cole Cannon22:43.6Gobles63.8SAC 1
10David Oetman22:43.8Allegan63.7SAC 1
9Zorowar(Joey) Brar22:43.1Ann Arbor Huron63.3SEC 1
12John Muckle22:43.1Chelsea63.3SEC 1
10Aidan Petik22:43.3Dexter63.2SEC 1
10Trey Sukola22:46.4Parchment62.9SAC 1
11Jacob Brouwer22:47.2Kalamazoo Christian62.6SAC 1
12Landon Bush22:47.0Saline62.0SEC 1
12Gael Borges22:48.5Ann Arbor Huron61.5SEC 1
9Maximus Walker22:49.9Tecumseh61.0SEC 1
12Guido DeGeronimo22:50.9Chelsea60.7SEC 1
9Lalo Garskof22:51.4Ann Arbor Pioneer60.5SEC 1
11Preston Hodge22:55.1Allegan60.0SAC 1
12Mason Duff22:57.1Allegan59.3SAC 1
11Cameron Sindlinger22:57.6Ypsilanti Lincoln58.5SEC 1
12Yamil Garcia22:59.8South Haven58.4SAC 1
10Jake Frost22:59.9South Haven58.4SAC 1
10Ryan Friedholm22:58.2Saline58.3SEC 1
10Zachary McPherson23:00.9Parchment58.1SAC 1
12Michael Maloy23:02.0Saline57.0SEC 1
9Jaden Zellinger23:03.4Pinckney56.5SEC 1
12Aiden Burke23:05.2Saline55.9SEC 1
11Donovan Miller23:10.0Constantine55.0SAC 1
9Francisco (Xisco) Dura23:09.8Ann Arbor Huron54.4SEC 1
9Quinn Hudson23:10.4Temperance Bedford54.2SEC 1
10Levi Whitehead23:13.8Dexter53.1SEC 1
11Aidan Gadepalli23:15.6Ann Arbor Huron52.5SEC 1
12Yuri Carnino23:17.2Saline51.9SEC 1
9Zeke Lafferty23:17.4Ann Arbor Skyline51.9SEC 1
9Matthew Moilanen23:18.3Jackson51.6SEC 1
10Archie Patterson23:18.6Saline51.5SEC 1
10Brock Hickerson23:21.8Delton-Kellogg51.1SAC 1
10Xingzhi(Tom) Tan23:20.1Ann Arbor Huron51.0SEC 1
9Kyle Davey23:21.5Ann Arbor Huron50.5SEC 1
11Adam Norden23:22.3Tecumseh50.2SEC 1
10Alex Watson23:23.0Dexter50.0SEC 1
10Ty Edwards23:25.5Schoolcraft49.8SAC 1
9Kalvin Louie23:28.4Bridgman48.9SAC 1
11Isaac Murray23:32.8Schoolcraft47.4SAC 1
11Andrew Wehr23:31.4Saline47.2SEC 1
10Alex Wilder23:37.7Watervliet45.8SAC 1
11Devin Geisler23:38.0Watervliet45.7SAC 1
12Tristan Barnett23:39.2Allegan45.3SAC 1
10Robert Pandolfi23:39.2Ann Arbor Pioneer44.6SEC 1
9Sihun You23:48.2Ann Arbor Pioneer41.6SEC 1
10Haven Stanton23:53.4Saline39.9SEC 1
11Noah Brown23:54.1Saline39.6SEC 1
10Ze(Jack) Jin23:55.1Ann Arbor Huron39.3SEC 1
9Rokas Kazlaukas23:58.4Saline38.2SEC 1
10Jackson Parker24:02.5Schoolcraft37.5SAC 1
12Jacob Meyer24:05.4South Haven36.5SAC 1
10Hajune Kim24:04.2Ann Arbor Huron36.3SEC 1
11Tyler Warnock24:08.2Fennville35.6SAC 1
9Kanya Cain24:10.3Jackson34.2SEC 1
9Jacob Alt24:10.9Ypsilanti Community34.0SEC 1
10Davion Garrison24:12.5Chelsea33.5SEC 1
11Lucus Lockner24:14.7Galesburg-Augusta33.4SAC 1
12Eli Miller24:14.0Tecumseh33.0SEC 1
11Miro Greensmith24:17.5Fennville32.5SAC 1
9Dennis Frazier24:18.4Watervliet32.2SAC 1
10Cooper Stewart24:23.1Bridgman30.6SAC 1
9Mason Becker24:25.2Jackson29.3SEC 1
12Chase Bates24:41.1Constantine24.6SAC 1
11Jaxson Cicotte24:41.2Dexter23.9SEC 1
12Luke Schoonmaker24:46.1Saugatuck23.0SAC 1
10Phillip Rohall24:46.6Parchment22.8SAC 1
11Bryce Trinklein24:51.2Fennville21.3SAC 1
12Owen Mineweaser24:50.0Jackson21.0SEC 1
9Michael Wu24:50.2Ann Arbor Pioneer20.9SEC 1
10Chase Hadder24:53.8Allegan20.4SAC 1
11Aidan Sutherland24:55.0Saline19.3SEC 1
12Andrew Harms24:57.1Chelsea18.6SEC 1
10Adrian Sieh25:02.6Saline16.8SEC 1
10Logan Kipley25:02.9Saline16.7SEC 1
9Dominic Durkacs25:03.8Ann Arbor Huron16.4SEC 1
9Milo Varnum25:19.0Ann Arbor Pioneer11.3SEC 1
12David Dornoff25:19.8Dexter11.1SEC 1
10Cole Bates25:38.1Constantine5.6SAC 1
10Enzo Haqq25:40.0South Haven5.0SAC 1
10Luka Lagina25:43.6Parchment3.8SAC 1
10Tucker Arrend25:46.0Coloma3.0SAC 1
11Dan McGehee25:48.8Schoolcraft2.1SAC 1
10Wesley Jenkins25:53.1Ann Arbor Skyline0.0SEC 1

GradeNameTimeTeamRatingMeet
11Kendra Koster19:12.5Lawton134.9SAC 1
11Natalie Mello19:24.5Ann Arbor Pioneer132.5SEC 1
12Mia Rogan19:27.9Saline131.4SEC 1
12Natalie Kessler19:35.2Ann Arbor Skyline128.9SEC 1
12Caroline Vance19:36.0Ann Arbor Skyline128.7SEC 1
10Alena Blumberg19:46.1Dexter125.3SEC 1
9Quincy Behm19:51.4Ann Arbor Pioneer123.5SEC 1
12Kaylee Pesta19:54.5Tecumseh122.5SEC 1
11Allison Mayer19:58.4Ann Arbor Skyline121.2SEC 1
10Sienna Snyder19:58.9Saline121.0SEC 1
11Lydia Bowman19:59.0Ann Arbor Pioneer121.0SEC 1
10Grace Roth20:02.5Saline119.8SEC 1
12Chesney Wilke20:05.0Tecumseh119.0SEC 1
11Katie Hume20:06.2Ann Arbor Pioneer118.6SEC 1
11Kate Varitek20:10.7Dexter117.1SEC 1
10Mackenzie Sellenraad20:14.3Saline115.9SEC 1
10Natalia DeMea20:19.0Chelsea114.3SEC 1
10Corynn Gady20:19.8Saline114.1SEC 1
11Sylvia Sanok Dufallo20:37.1Ann Arbor Pioneer108.3SEC 1
12Leah White20:37.7Ann Arbor Skyline108.1SEC 1
10Annabel O’Haver20:49.6Dexter104.1SEC 1
11Sonya Shelgikar20:51.4Ann Arbor Huron103.5SEC 1
12Sofia Oertel20:49.8Lawton102.4SAC 1
10Addison Bruckman20:56.3Dexter101.9SEC 1
11Viktoria Bloniarz20:59.0Monroe101.0SEC 1
12Aubrey Stager21:00.3Saline100.6SEC 1
11Anastee Davis21:01.1Adrian100.3SEC 1
10Lucinda Paliani21:02.3Ann Arbor Huron99.9SEC 1
9Sam Bieber21:10.7Chelsea97.1SEC 1
11Yoselin Fermin-Campos21:13.7Adrian96.1SEC 1
9Leena Shelgikar21:15.2Ann Arbor Huron95.6SEC 1
12Royce Smith21:19.0Ann Arbor Huron94.3SEC 1
12Caley Kerwin21:15.4Schoolcraft93.9SAC 1
10Abby Roth21:21.2Saline93.6SEC 1
12Katie Fischer21:22.3Adrian93.2SEC 1
11Bailey Burt21:22.8Saline93.1SEC 1
11Trilian Krug21:23.2Chelsea92.9SEC 1
12Lydia Cocciolone21:23.4Ann Arbor Skyline92.9SEC 1
12Annika Sytsma21:20.8Kalamazoo Christian92.1SAC 1
10Olivia Shaieb21:26.7Dexter91.8SEC 1
10Madison Morris21:28.8Tecumseh91.1SEC 1
10Madison Rogan21:29.3Saline90.9SEC 1
12Allison Nutt21:29.7Ann Arbor Pioneer90.8SEC 1
12Julia Kause21:29.7Chelsea90.8SEC 1
10Ariana Pillot21:24.8Schoolcraft90.7SAC 1
12Rebekah Asselin21:41.7Temperance Bedford86.8SEC 1
12Antonia Bruckman21:45.7Dexter85.4SEC 1
10Sophy Skeels21:46.3Adrian85.2SEC 1
10Lauren Thompson21:47.3Chelsea84.9SEC 1
12Annalisa DeGuzman21:48.6Ann Arbor Skyline84.5SEC 1
10Alaina Klooster21:45.7Kalamazoo Christian83.8SAC 1
11Seren Angus21:51.0Chelsea83.7SEC 1
9Jillian Hayes21:52.1Saline83.3SEC 1
12Emma Abbott21:52.6Tecumseh83.1SEC 1
9Lilly Schlack21:54.6Saline82.5SEC 1
10Clara Fast21:53.5Bridgman81.2SAC 1
11Angel Miller22:00.8Parchment78.7SAC 1
12Emily Stevenson22:07.1Tecumseh78.3SEC 1
9Hannah Bougher22:08.4Dexter77.9SEC 1
11Nancy Gage22:15.1Saline75.6SEC 1
12Sydney Van Es22:10.6Kalamazoo Hackett75.5SAC 1
9Hana Boggess22:15.8Ann Arbor Pioneer75.4SEC 1
10Grace Oberski22:18.5Saline74.5SEC 1
12Aubrey Herder22:17.8Kalamazoo Christian73.1SAC 1
12Emily Ma22:23.6Ann Arbor Huron72.8SEC 1
11Nidia Martinez22:22.4Fennville71.5SAC 1
12Lily LaBurn22:23.4Holland Black River71.2SAC 1
12Sabrina Mills22:25.7Allegan70.4SAC 1
12Morgan Kay22:31.2Monroe70.3SEC 1
9Mavee Clark22:35.1Adrian69.0SEC 1
12Naomi Kaczor22:37.1Ann Arbor Pioneer68.3SEC 1
11Sarah Conley22:39.6Ann Arbor Huron67.5SEC 1
12Bethany Brown22:35.5Parchment67.2SAC 1
10Lizzie Thibeault22:41.2Saline66.9SEC 1
9Madison Cooley22:37.1Gobles66.6SAC 1
12Rachel Allabaugh22:37.6Kalamazoo Christian66.5SAC 1
10Jessica Warren22:47.9Tecumseh64.7SEC 1
10Carrie Schwartz22:48.0Saline64.7SEC 1
9Claire Cousineau22:48.0Tecumseh64.7SEC 1
10Hannah Sisson22:49.0Dexter64.3SEC 1
12Megan O’Day22:50.8Dexter63.7SEC 1
12Hope Zichterman22:46.1Kalamazoo Christian63.6SAC 1
11Celia Begosso22:53.1Ann Arbor Skyline63.0SEC 1
11Morgan Lowell22:50.6Watervliet62.1SAC 1
9Grace Hopkins22:56.3Ann Arbor Skyline61.9SEC 1
10Aiko Motohara22:56.7Ann Arbor Huron61.8SEC 1
12Mia Solomon22:57.8Ann Arbor Huron61.4SEC 1
9Zella Kryscynski23:00.4Ann Arbor Pioneer60.5SEC 1
12Camryn Brown22:55.7Coloma60.4SAC 1
12Emma Bushroe23:01.0Temperance Bedford60.3SEC 1
12Mya Orner23:03.1Temperance Bedford59.6SEC 1
10Christina Mendoza23:00.2Fennville58.9SAC 1
12Monica Ristich23:06.7Ann Arbor Pioneer58.4SEC 1
10Kimberly Romero23:02.3Watervliet58.2SAC 1
12Kiera Tuttle23:09.0Saline57.7SEC 1
11Izabella Loubser23:10.8Temperance Bedford57.1SEC 1
10Jasmine Boggy23:11.2Ann Arbor Pioneer56.9SEC 1
11Natalie Glerum23:08.0Schoolcraft56.3SAC 1
12Summer Fast23:08.6Bridgman56.1SAC 1
11Merissa Mendoza23:09.3Fennville55.9SAC 1
9Riley Provost23:17.4Saline54.9SEC 1
11Clara Fedenberg23:17.9Chelsea54.7SEC 1
10Addison Streetman23:18.7Dexter54.4SEC 1
10Emily Howell23:13.8Bridgman54.4SAC 1
9Kandin Shuler23:15.4Bridgman53.9SAC 1
9Anna Coury23:21.3Monroe53.6SEC 1
10Addison Blodgett23:17.4Schoolcraft53.2SAC 1
11Serena O’Brien23:25.2Ann Arbor Skyline52.3SEC 1
10Madalynn Karsies23:27.6Pinckney51.5SEC 1
12Kelsey Knape23:28.6Tecumseh51.1SEC 1
10Lucy Pike23:29.5Ann Arbor Pioneer50.8SEC 1
12Brooke Matusik23:37.1Chelsea48.3SEC 1
12Jozaphine Navarro23:32.8Allegan48.1SAC 1
12Madeline Hood23:43.6Ann Arbor Pioneer46.1SEC 1
9Emma Riker23:39.4Kalamazoo Hackett45.9SAC 1
9Katelyn Van Es23:39.5Kalamazoo Hackett45.9SAC 1
10Rhya Wright23:45.3Dexter45.6SEC 1
12Sydney Dec23:45.7Temperance Bedford45.4SEC 1
10Reese Oberski23:45.9Temperance Bedford45.4SEC 1
9Amelia Cribbins23:46.9Dexter45.0SEC 1
10Katelynn Reading23:49.6Saline44.1SEC 1
11Jenna VanDussen23:46.3Schoolcraft43.6SAC 1
10Johannah Houtkooper23:49.8Delton-Kellogg42.4SAC 1
9Avery Hoeft23:57.4Dexter41.5SEC 1
10Lianne Liu23:58.1Ann Arbor Huron41.3SEC 1
9Corinna Aulph23:59.6Monroe40.8SEC 1
10Kylie Warner24:02.6Saline39.8SEC 1
11Anna Smith24:04.6Dexter39.1SEC 1
11Anneliese Jones24:07.0Ann Arbor Pioneer38.3SEC 1
12Samantha Sexton24:08.1Temperance Bedford38.0SEC 1
9Grace Brown24:15.2Jackson35.6SEC 1
10Hadley Feyen24:15.9Ann Arbor Pioneer35.4SEC 1
9Chloe Wanner24:16.2Temperance Bedford35.3SEC 1
9Aurora Janevic24:16.4Ann Arbor Pioneer35.2SEC 1
11Rebecca Rummel24:17.5Saline34.8SEC 1
10Kailyn Austin24:18.5Saline34.5SEC 1
9Aubrey Miscikowski24:19.1Temperance Bedford34.3SEC 1
11Stella Niemi24:20.2Dexter33.9SEC 1
12Audra Guthre24:21.2Chelsea33.6SEC 1
10Baneen Al-Heleal24:23.1Ypsilanti Community33.0SEC 1
11Neva Rognes24:23.7Saline32.8SEC 1
11Nora Ballard24:19.0Holland Black River32.7SAC 1
12Camille Wolbrink24:20.6Holland Black River32.1SAC 1
10Isabella Morris24:25.8Adrian32.1SEC 1
10Avery Lawrence24:26.1Dexter32.0SEC 1
12Valerie Oz24:26.4Temperance Bedford31.9SEC 1
11Alyssa VanDussen24:22.7Schoolcraft31.4SAC 1
10Kendra Bogan24:28.5Ann Arbor Huron31.2SEC 1
11Alexandria Mason24:28.7Ann Arbor Skyline31.1SEC 1
9Julianne Mounce24:28.9Kalamazoo Hackett29.4SAC 1
12Annika Steinke24:30.3Lawton28.9SAC 1
11Marah Putnam24:37.7Chelsea28.1SEC 1
12Olivia Penzotti24:33.3Kalamazoo Christian27.9SAC 1
11Maya Veldt24:34.1Saugatuck27.6SAC 1
12Grace Finley24:40.0Monroe27.3SEC 1
10Mara McClellan24:41.3Saline26.9SEC 1
11Jill Kaspar24:39.0Bridgman26.0SAC 1
11Aileen Bachrans24:44.6Ann Arbor Skyline25.8SEC 1
11Summer Ritchie24:40.7Delton-Kellogg25.5SAC 1
11Addisyn Price24:41.8Lawton25.1SAC 1
10Chelsea Johnson24:48.9Temperance Bedford24.4SEC 1
12Maya Hitchingham24:49.2Jackson24.3SEC 1
10Christina Hurtado Marin24:50.7Chelsea23.8SEC 1
11Elliana Rivera24:46.2Kalamazoo Christian23.6SAC 1
9Grace Fredericks24:52.9Temperance Bedford23.0SEC 1
11Zita Lucarelli24:54.3Temperance Bedford22.6SEC 1
12Elizabeth Beck24:54.8Ann Arbor Skyline22.4SEC 1
11Cecelia Brush24:56.7Ann Arbor Skyline21.8SEC 1
10Rachel Sprauer24:59.0Ann Arbor Pioneer21.0SEC 1
10Alexandra Butler24:59.1Monroe21.0SEC 1
10Zoie Wood24:55.3Gobles20.6SAC 1
10Abby Ulbrich24:55.4Kalamazoo Hackett20.5SAC 1
9Aspen Taylor25:01.9Dexter20.0SEC 1
9Ivy Miller25:03.4Ann Arbor Skyline19.5SEC 1
12Yasmeen Nimer25:03.7Ypsilanti Community19.4SEC 1
12Quinn Hilla25:06.8Dexter18.4SEC 1
10Miley Torres25:02.0Lawton18.3SAC 1
11Ally Pitcher25:08.0Monroe18.0SEC 1
9Bethany Carpenter25:04.4Kalamazoo Hackett17.5SAC 1
10Gabby Wisdom25:06.5Watervliet16.8SAC 1
9Maya Muenzer25:11.8Temperance Bedford16.7SEC 1
10Lucy Bray25:07.6Kalamazoo Christian16.5SAC 1
9Hattie Pok25:14.5Ann Arbor Pioneer15.8SEC 1
10Addison Robke25:14.7Dexter15.8SEC 1
11Cyprus Gabriel-Menegay25:15.0Chelsea15.7SEC 1
11Mikayla Butters25:16.8Jackson15.1SEC 1
9Adrienne Stewart25:20.9Ann Arbor Skyline13.7SEC 1
11Mia Mulder25:19.0Schoolcraft12.7SAC 1
10Tuula Buckland25:19.7Bridgman12.4SAC 1
11Anita Corpetti25:20.6Holland Black River12.1SAC 1
12Livianna Mattila25:25.9Pinckney12.0SEC 1
12Noa Martin-Espinosa25:21.0Martin12.0SAC 1
10Kaitlin Kubicki25:30.0Chelsea10.7SEC 1
10Olivia Szczepanik25:31.8Temperance Bedford10.1SEC 1
9Bridget Kerber25:39.0Ann Arbor Pioneer7.7SEC 1
9Abbi Rozman25:40.0Holland Black River5.7SAC 1
11Brianna Wheaton25:48.3Pinckney4.6SEC 1
11Allisyn Pagel25:48.8Adrian4.4SEC 1
9Kennedy Lange25:53.7Saline2.8SEC 1
10Marykate Thomas25:49.2Kalamazoo Christian2.6SAC 1
9Ella Geisler25:49.4Watervliet2.5SAC 1
12Kayleigh Kuhse25:50.3Galesburg-Augusta2.2SAC 1
10Allysa Kelly25:56.5Temperance Bedford1.8SEC 1
11Madelyn Hagerty25:57.8Pinckney1.4SEC 1
9Samantha Giles25:56.3Fennville0.2SAC 1

Leave a Reply

Fill in your details below or click an icon to log in:

WordPress.com Logo

You are commenting using your WordPress.com account. Log Out /  Change )

Twitter picture

You are commenting using your Twitter account. Log Out /  Change )

Facebook photo

You are commenting using your Facebook account. Log Out /  Change )

Connecting to %s